| time (UTC) | temp F | wind direction | speed knots | gust knots | rain 1hr in | rain 24hr in | rain mn in | humidity % | barometer mb |
| 20260901104521 | 52 | 244 | 0.0 | 0.0 | 0.00 | 0.00 | 0.00 | 90 | 1011.7 |
| 20260901103026 | 52 | 244 | 0.0 | 0.0 | 0.00 | 0.00 | 0.00 | 89 | 1011.7 |
| 20260901101530 | 52 | 244 | 0.0 | 0.0 | 0.00 | 0.00 | 0.00 | 89 | 1011.6 |
| 20260901100032 | 53 | 256 | 0.0 | 0.0 | 0.00 | 0.00 | 0.00 | 88 | 1011.6 |
| 20260901094515 | 53 | 256 | 0.0 | 0.0 | 0.00 | 0.00 | 0.00 | 87 | 1011.6 |
| 20260901093021 | 54 | 272 | 0.0 | 0.0 | 0.00 | 0.00 | 0.00 | 87 | 1011.5 |
| 20260901091527 | 55 | 272 | 0.0 | 0.0 | 0.00 | 0.00 | 0.00 | 87 | 1011.4 |
| 20260901090032 | 55 | 272 | 0.0 | 0.0 | 0.00 | 0.00 | 0.00 | 85 | 1011.1 |
| 20260901084533 | 56 | 267 | 0.0 | 0.0 | 0.00 | 0.00 | 0.00 | 85 | 1010.9 |
| 20260901083017 | 57 | 217 | 0.0 | 0.0 | 0.00 | 0.00 | 0.00 | 84 | 1011.0 |
| 20260901081524 | 58 | 163 | 0.0 | 4.3 | 0.00 | 0.00 | 0.00 | 83 | 1011.0 |
| 20260901080030 | 58 | 146 | 1.7 | 3.5 | 0.00 | 0.00 | 0.00 | 83 | 1010.9 |
| 20260901074511 | 58 | 129 | 0.9 | 4.3 | 0.00 | 0.00 | 0.00 | 83 | 1010.8 |
| 20260901073015 | 58 | 98 | 0.0 | 2.6 | 0.00 | 0.00 | 0.00 | 83 | 1010.8 |
| 20260901071521 | 58 | 85 | 0.9 | 3.5 | 0.00 | 0.00 | 0.00 | 83 | 1010.7 |
| 20260901070026 | 58 | 121 | 0.9 | 5.2 | 0.00 | 0.00 | 0.00 | 82 | 1010.6 |
| 20260901064508 | 59 | 82 | 0.0 | 2.6 | 0.00 | 0.00 | 0.00 | 81 | 1010.4 |
| 20260901063019 | 59 | 51 | 0.0 | 1.7 | 0.00 | 0.00 | 0.00 | 80 | 1010.3 |
| 20260901061519 | 59 | 128 | 0.0 | 2.6 | 0.00 | 0.00 | 0.00 | 80 | 1010.1 |
| 20260901060038 | 60 | 46 | 0.0 | 1.7 | 0.00 | 0.00 | 0.00 | 79 | 1010.0 |
| 20260901054530 | 60 | 83 | 0.9 | 3.5 | 0.00 | 0.00 | 0.00 | 78 | 1009.8 |
| 20260901053011 | 61 | 31 | 0.0 | 1.7 | 0.00 | 0.00 | 0.00 | 77 | 1009.8 |
| 20260901051517 | 62 | 43 | 0.0 | 0.0 | 0.00 | 0.00 | 0.00 | 76 | 1009.6 |
| 20260901050023 | 62 | 73 | 0.0 | 3.5 | 0.00 | 0.00 | 0.00 | 75 | 1009.4 |
| 20260901044528 | 63 | 39 | 0.0 | 1.7 | 0.00 | 0.00 | 0.00 | 73 | 1009.5 |
| 20260901043030 | 64 | 40 | 0.0 | 0.0 | 0.00 | 0.00 | 0.00 | 71 | 1009.5 |
| 20260901041514 | 66 | 40 | 0.0 | 0.0 | 0.00 | 0.00 | 0.00 | 68 | 1009.3 |
| 20260901040023 | 67 | 68 | 0.0 | 0.0 | 0.00 | 0.00 | 0.00 | 66 | 1009.0 |
| 20260901034531 | 68 | 53 | 0.0 | 1.7 | 0.00 | 0.00 | 0.00 | 63 | 1008.7 |
| 20260901033033 | 70 | 79 | 0.0 | 1.7 | 0.00 | 0.00 | 0.00 | 60 | 1008.4 |
| 20260901031531 | 71 | 67 | 0.0 | 3.5 | 0.00 | 0.00 | 0.00 | 58 | 1008.1 |
| 20260901030019 | 73 | 98 | 1.7 | 6.1 | 0.00 | 0.00 | 0.00 | 55 | 1008.0 |
| 20260901024526 | 74 | 144 | 0.9 | 4.3 | 0.00 | 0.00 | 0.00 | 54 | 1007.8 |
| 20260901023031 | 76 | 38 | 0.0 | 2.6 | 0.00 | 0.00 | 0.00 | 52 | 1007.7 |
| 20260901021535 | 78 | 229 | 1.7 | 3.5 | 0.00 | 0.00 | 0.00 | 51 | 1007.6 |
| 20260901020014 | 79 | 213 | 2.6 | 4.3 | 0.00 | 0.00 | 0.00 | 49 | 1007.7 |
| 20260901014524 | 80 | 186 | 0.9 | 5.2 | 0.00 | 0.00 | 0.00 | 48 | 1007.6 |
| 20260901013026 | 82 | 138 | 1.7 | 5.2 | 0.00 | 0.00 | 0.00 | 45 | 1007.6 |
| 20260901011508 | 83 | 199 | 0.9 | 7.0 | 0.00 | 0.00 | 0.00 | 44 | 1007.6 |
| 20260901010019 | 84 | 132 | 1.7 | 7.0 | 0.00 | 0.00 | 0.00 | 43 | 1007.5 |
| 20260901004518 | 85 | 151 | 3.5 | 8.7 | 0.00 | 0.00 | 0.00 | 42 | 1007.4 |
| 20260901003026 | 85 | 85 | 1.7 | 7.0 | 0.00 | 0.00 | 0.00 | 42 | 1007.4 |
| 20260901001529 | 84 | 13 | 1.7 | 5.2 | 0.00 | 0.00 | 0.00 | 40 | 1007.5 |
| 20260901000008 | 84 | 46 | 1.7 | 3.5 | 0.00 | 0.00 | 0.00 | 39 | 1007.6 |
| 20260831234517 | 84 | 247 | 0.0 | 4.3 | 0.00 | 0.00 | 0.00 | 39 | 1007.7 |
| 20260831233037 | 84 | 34 | 0.0 | 3.5 | 0.00 | 0.00 | 0.00 | 41 | 1007.8 |
| 20260831231534 | 84 | 36 | 0.0 | 2.6 | 0.00 | 0.00 | 0.00 | 42 | 1007.9 |
| 20260831230008 | 83 | 240 | 0.0 | 3.5 | 0.00 | 0.00 | 0.00 | 42 | 1007.9 |
| 20260831224511 | 83 | 175 | 0.0 | 1.7 | 0.00 | 0.00 | 0.00 | 40 | 1008.1 |
| 20260831223022 | 82 | 32 | 0.0 | 2.6 | 0.00 | 0.00 | 0.00 | 40 | 1008.3 |
| 20260831221534 | 81 | 11 | 0.0 | 4.3 | 0.00 | 0.00 | 0.00 | 43 | 1008.5 |
| 20260831220032 | 82 | 30 | 1.7 | 5.2 | 0.00 | 0.00 | 0.00 | 41 | 1008.6 |
| 20260831214513 | 81 | 49 | 0.9 | 3.5 | 0.00 | 0.00 | 0.00 | 44 | 1008.7 |
| 20260831213020 | 81 | 42 | 1.7 | 7.0 | 0.00 | 0.00 | 0.00 | 44 | 1008.9 |
| 20260831211527 | 81 | 32 | 1.7 | 5.2 | 0.00 | 0.00 | 0.00 | 42 | 1008.9 |
| 20260831210029 | 81 | 38 | 0.0 | 3.5 | 0.00 | 0.00 | 0.00 | 42 | 1009.0 |
| 20260831204531 | 80 | 36 | 0.0 | 3.5 | 0.00 | 0.00 | 0.00 | 42 | 1009.3 |
| 20260831203013 | 79 | 59 | 0.9 | 5.2 | 0.00 | 0.00 | 0.00 | 45 | 1009.4 |
| 20260831201526 | 78 | 61 | 0.0 | 4.3 | 0.00 | 0.00 | 0.00 | 46 | 1009.6 |
| 20260831200026 | 77 | 9 | 2.6 | 5.2 | 0.00 | 0.00 | 0.00 | 45 | 1009.8 |
| 20260831194530 | 76 | 29 | 1.7 | 4.3 | 0.00 | 0.00 | 0.00 | 48 | 1010.1 |
| 20260831193029 | 75 | 340 | 2.6 | 5.2 | 0.00 | 0.00 | 0.00 | 47 | 1010.2 |
| 20260831191519 | 75 | 346 | 3.5 | 7.0 | 0.00 | 0.00 | 0.00 | 48 | 1010.4 |
| 20260831190029 | 74 | 34 | 1.7 | 5.2 | 0.00 | 0.00 | 0.00 | 50 | 1010.6 |
| 20260831184529 | 73 | 48 | 0.0 | 3.5 | 0.00 | 0.00 | 0.00 | 53 | 1011.0 |
| 20260831183035 | 72 | 9 | 2.6 | 7.0 | 0.00 | 0.00 | 0.00 | 53 | 1011.1 |
| 20260831181519 | 71 | 9 | 1.7 | 3.5 | 0.00 | 0.00 | 0.00 | 56 | 1011.2 |
| 20260831180023 | 70 | 296 | 0.0 | 5.2 | 0.00 | 0.00 | 0.00 | 58 | 1011.3 |
| 20260831174529 | 70 | 56 | 0.0 | 1.7 | 0.00 | 0.00 | 0.00 | 59 | 1011.5 |
| 20260831173031 | 68 | 98 | 0.0 | 3.5 | 0.00 | 0.00 | 0.00 | 61 | 1011.7 |
| 20260831171531 | 67 | 51 | 0.9 | 3.5 | 0.00 | 0.00 | 0.00 | 62 | 1011.8 |
| 20260831170035 | 66 | 15 | 0.0 | 2.6 | 0.00 | 0.00 | 0.00 | 62 | 1011.9 |
| 20260831164530 | 65 | 341 | 1.7 | 2.6 | 0.00 | 0.00 | 0.00 | 64 | 1012.1 |
| 20260831163030 | 64 | 348 | 0.9 | 3.5 | 0.00 | 0.00 | 0.00 | 67 | 1012.3 |
| 20260831161516 | 63 | 33 | 0.9 | 2.6 | 0.00 | 0.00 | 0.00 | 68 | 1012.5 |
| 20260831160027 | 63 | 46 | 0.9 | 2.6 | 0.00 | 0.00 | 0.00 | 69 | 1012.5 |
| 20260831154548 | 61 | 44 | 0.0 | 1.7 | 0.00 | 0.00 | 0.00 | 75 | 1012.5 |
| 20260831153006 | 59 | 44 | 0.0 | 1.7 | 0.00 | 0.00 | 0.00 | 78 | 1012.7 |
| 20260831151512 | 57 | 311 | 0.0 | 0.0 | 0.00 | 0.00 | 0.00 | 83 | 1012.7 |
| 20260831150022 | 54 | 311 | 0.0 | 0.0 | 0.00 | 0.00 | 0.00 | 87 | 1012.7 |
| 20260831144524 | 51 | 311 | 0.0 | 0.0 | 0.00 | 0.00 | 0.00 | 90 | 1012.7 |
| 20260831143006 | 50 | 311 | 0.0 | 0.0 | 0.00 | 0.00 | 0.00 | 92 | 1012.7 |
| 20260831141508 | 48 | 311 | 0.0 | 0.0 | 0.00 | 0.00 | 0.00 | 92 | 1012.6 |
| 20260831140016 | 47 | 236 | 0.0 | 0.0 | 0.00 | 0.00 | 0.00 | 91 | 1012.7 |
| 20260831134524 | 47 | 236 | 0.0 | 0.0 | 0.00 | 0.00 | 0.00 | 90 | 1012.7 |
| 20260831133031 | 48 | 236 | 0.0 | 0.0 | 0.00 | 0.00 | 0.00 | 91 | 1012.7 |
| 20260831131509 | 48 | 283 | 0.0 | 0.0 | 0.00 | 0.00 | 0.00 | 90 | 1012.8 |
| 20260831130016 | 48 | 323 | 0.0 | 0.0 | 0.00 | 0.00 | 0.00 | 90 | 1012.8 |
| 20260831124525 | 48 | 323 | 0.0 | 0.0 | 0.00 | 0.00 | 0.00 | 90 | 1012.9 |
| 20260831123031 | 49 | 323 | 0.0 | 0.0 | 0.00 | 0.00 | 0.00 | 90 | 1013.0 |
| 20260831121540 | 49 | 323 | 0.0 | 0.0 | 0.00 | 0.00 | 0.00 | 89 | 1013.1 |
| 20260831120015 | 49 | 239 | 0.0 | 0.0 | 0.00 | 0.00 | 0.00 | 89 | 1013.2 |
| 20260831114520 | 49 | 239 | 0.0 | 0.0 | 0.00 | 0.00 | 0.00 | 88 | 1013.3 |
| 20260831113024 | 49 | 239 | 0.0 | 0.0 | 0.00 | 0.00 | 0.00 | 89 | 1013.4 |
| 20260831111528 | 50 | 239 | 0.0 | 0.0 | 0.00 | 0.00 | 0.00 | 88 | 1013.4 |
| 20260831110031 | 50 | 239 | 0.0 | 0.0 | 0.00 | 0.00 | 0.00 | 87 | 1013.4 |